• în Republica Moldova
  • Lista ţărilor
  • Pe 7 zile
  • Temperatura apei
  • Hartă satelitară
  • Meteo pe hartă
  • Widget-uri
  • user-avatar
    Intrare

    Meteo pe oră la Ischgl

    Astăzi, 25 Iulie, Marţi

    Timp Temperatura Precipitaţii Vânt Presiune Umiditate
    00:00 +1°C° 0,1 mm 2 m/s 571 mmHg 93%
    01:00 +1°C° 0,1 mm 2 m/s 570 mmHg 93%
    02:00 +1°C° 0,3 mm 2 m/s 570 mmHg 92%
    03:00 +1°C° 0,3 mm 2 m/s 570 mmHg 92%
    04:00 +1°C° 0,3 mm 2 m/s 570 mmHg 91%
    05:00 +2°C° 0,5 mm 2 m/s 570 mmHg 90%
    06:00 +2°C° 0,5 mm 2 m/s 570 mmHg 89%
    07:00 +3°C° 0,5 mm 2 m/s 571 mmHg 88%
    08:00 +3°C° 0,4 mm 2 m/s 571 mmHg 85%
    09:00 +4°C° 0,4 mm 2 m/s 571 mmHg 82%
    10:00 +5°C° 0,4 mm 2 m/s 572 mmHg 79%
    11:00 +5°C° 0,8 mm 2 m/s 572 mmHg 79%
    12:00 +5°C° 0,8 mm 2 m/s 572 mmHg 78%
    13:00 +5°C° 0,8 mm 3 m/s 572 mmHg 77%
    14:00 +4°C° 0,7 mm 3 m/s 571 mmHg 78%
    15:00 +4°C° 0,7 mm 3 m/s 571 mmHg 79%
    16:00 +4°C° 0,7 mm 3 m/s 571 mmHg 79%
    17:00 +3°C° 0,3 mm 3 m/s 571 mmHg 81%
    18:00 +4°C° 0,3 mm 2 m/s 571 mmHg 83%
    19:00 +3°C° 0,3 mm 2 m/s 571 mmHg 85%
    20:00 +3°C° 0,1 mm 2 m/s 570 mmHg 88%
    21:00 +2°C° 0,1 mm 2 m/s 570 mmHg 91%
    22:00 +1°C° 0,1 mm 2 m/s 570 mmHg 94%
    23:00 +1°C° 0,2 mm 2 m/s 570 mmHg 93%

    Mâine, 26 Iulie, Miercuri

    Timp Temperatura Precipitaţii Vânt Presiune Umiditate
    00:00 +1°C° 0,2 mm 2 m/s 570 mmHg 93%
    01:00 +2°C° 0,2 mm 2 m/s 570 mmHg 92%
    02:00 +1°C° 0,3 mm 2 m/s 570 mmHg 93%
    03:00 +1°C° 0,3 mm 2 m/s 570 mmHg 93%
    04:00 +1°C° 0,3 mm 2 m/s 570 mmHg 93%
    05:00 +1°C° 0,3 mm 2 m/s 570 mmHg 92%
    06:00 +2°C° 0,3 mm 2 m/s 570 mmHg 91%
    07:00 +2°C° 0,3 mm 2 m/s 570 mmHg 89%
    08:00 +3°C° 0,7 mm 2 m/s 571 mmHg 87%
    09:00 +3°C° 0,7 mm 2 m/s 571 mmHg 85%
    10:00 +4°C° 0,7 mm 2 m/s 571 mmHg 83%
    11:00 +4°C° 0,6 mm 2 m/s 572 mmHg 83%
    12:00 +4°C° 0,6 mm 2 m/s 572 mmHg 83%
    13:00 +4°C° 0,6 mm 2 m/s 572 mmHg 83%
    14:00 +5°C° 0,2 mm 2 m/s 572 mmHg 80%
    15:00 +6°C° 0,2 mm 2 m/s 573 mmHg 76%
    16:00 +6°C° 0,2 mm 2 m/s 573 mmHg 73%
    17:00 +6°C° 0,2 mm 2 m/s 573 mmHg 77%
    18:00 +5°C° 0,2 mm 2 m/s 573 mmHg 81%
    19:00 +4°C° 0,2 mm 2 m/s 573 mmHg 84%
    20:00 +3°C° 0 mm 2 m/s 572 mmHg 88%
    21:00 +2°C° 0 mm 2 m/s 572 mmHg 91%
    22:00 +1°C° 0 mm 2 m/s 572 mmHg 94%
    23:00 +1°C° 0 mm 2 m/s 572 mmHg 94%

    Poimâine, 27 Iulie, Joi

    Timp Temperatura Precipitaţii Vânt Presiune Umiditate
    00:00 -1°C° 0 mm 2 m/s 572 mmHg 93%
    01:00 -1°C° 0 mm 2 m/s 572 mmHg 93%
    02:00 -1°C° 0 mm 2 m/s 572 mmHg 90%
    03:00 -1°C° 0 mm 2 m/s 572 mmHg 86%
    04:00 +2°C° 0 mm 1 m/s 572 mmHg 83%
    05:00 +3°C° 0 mm 1 m/s 572 mmHg 77%
    06:00 +4°C° 0 mm 1 m/s 573 mmHg 72%
    07:00 +6°C° 0 mm 1 m/s 574 mmHg 66%
    08:00 +7°C° 0,1 mm 1 m/s 574 mmHg 63%
    09:00 +8°C° 0,1 mm 1 m/s 575 mmHg 60%
    10:00 +10°C° 0,1 mm 1 m/s 575 mmHg 58%
    11:00 +10°C° 0,3 mm 1 m/s 576 mmHg 58%
    12:00 +11°C° 0,3 mm 1 m/s 576 mmHg 58%
    13:00 +12°C° 0,3 mm 1 m/s 576 mmHg 58%
    14:00 +12°C° 0 mm 1 m/s 576 mmHg 58%
    15:00 +12°C° 0 mm 2 m/s 576 mmHg 58%
    16:00 +13°C° 0 mm 2 m/s 577 mmHg 59%
    17:00 +12°C° 0 mm 2 m/s 576 mmHg 66%
    18:00 +11°C° 0 mm 1 m/s 576 mmHg 74%
    19:00 +10°C° 0 mm 1 m/s 575 mmHg 82%
    20:00 +8°C° 0,1 mm 1 m/s 575 mmHg 85%
    21:00 +7°C° 0,1 mm 1 m/s 574 mmHg 89%
    22:00 +5°C° 0,1 mm 1 m/s 574 mmHg 93%
    23:00 +5°C° 0 mm 1 m/s 574 mmHg 92%

    28 Iulie, Vineri

    Timp Temperatura Precipitaţii Vânt Presiune Umiditate
    00:00 +5°C° 0 mm 1 m/s 574 mmHg 92%
    01:00 +5°C° 0 mm 1 m/s 574 mmHg 91%
    02:00 +5°C° 0,1 mm 1 m/s 574 mmHg 91%
    03:00 +5°C° 0,1 mm 1 m/s 574 mmHg 91%
    04:00 +5°C° 0,1 mm 1 m/s 574 mmHg 91%
    05:00 +6°C° 0,1 mm 1 m/s 574 mmHg 89%
    06:00 +8°C° 0,1 mm 1 m/s 575 mmHg 87%
    07:00 +9°C° 0,1 mm 1 m/s 576 mmHg 84%
    08:00 +10°C° 0,2 mm 1 m/s 576 mmHg 81%
    09:00 +11°C° 0,2 mm 1 m/s 577 mmHg 78%
    10:00 +12°C° 0,2 mm 2 m/s 578 mmHg 74%
    11:00 +12°C° 0,2 mm 2 m/s 578 mmHg 72%
    12:00 +13°C° 0,2 mm 2 m/s 578 mmHg 69%
    13:00 +13°C° 0,2 mm 2 m/s 578 mmHg 67%
    14:00 +13°C° 0,2 mm 2 m/s 579 mmHg 67%
    15:00 +13°C° 0,2 mm 2 m/s 579 mmHg 68%
    16:00 +13°C° 0,2 mm 2 m/s 579 mmHg 68%
    17:00 +12°C° 0,1 mm 2 m/s 579 mmHg 73%
    18:00 +10°C° 0,1 mm 2 m/s 578 mmHg 78%
    19:00 +10°C° 0,1 mm 2 m/s 578 mmHg 83%
    20:00 +9°C° 0 mm 1 m/s 578 mmHg 87%
    21:00 +8°C° 0 mm 1 m/s 578 mmHg 91%
    22:00 +6°C° 0 mm 1 m/s 578 mmHg 95%
    23:00 +6°C° 0 mm 1 m/s 577 mmHg 95%

    29 Iulie, Sâmbătă

    Timp Temperatura Precipitaţii Vânt Presiune Umiditate
    00:00 +6°C° 0 mm 1 m/s 577 mmHg 95%
    01:00 +5°C° 0 mm 1 m/s 577 mmHg 95%
    02:00 +5°C° 0 mm 1 m/s 577 mmHg 94%
    03:00 +5°C° 0 mm 1 m/s 577 mmHg 93%
    04:00 +5°C° 0 mm 1 m/s 577 mmHg 92%
    05:00 +7°C° 0 mm 1 m/s 578 mmHg 88%
    06:00 +7°C° 0 mm 2 m/s 578 mmHg 85%
    07:00 +9°C° 0 mm 2 m/s 579 mmHg 81%
    08:00 +12°C° 0 mm 2 m/s 580 mmHg 74%
    09:00 +14°C° 0 mm 2 m/s 581 mmHg 68%
    10:00 +15°C° 0 mm 2 m/s 582 mmHg 61%
    11:00 +16°C° 0,3 mm 2 m/s 582 mmHg 61%
    12:00 +16°C° 0,3 mm 2 m/s 582 mmHg 62%
    13:00 +16°C° 0,3 mm 2 m/s 582 mmHg 62%
    14:00 +16°C° 1,2 mm 2 m/s 582 mmHg 65%
    15:00 +15°C° 1,2 mm 2 m/s 581 mmHg 68%
    16:00 +15°C° 1,2 mm 1 m/s 581 mmHg 72%
    17:00 +14°C° 1,8 mm 1 m/s 581 mmHg 77%
    18:00 +13°C° 1,8 mm 1 m/s 580 mmHg 83%
    19:00 +12°C° 1,8 mm 1 m/s 580 mmHg 88%
    20:00 +11°C° 1 mm 1 m/s 580 mmHg 90%
    21:00 +10°C° 1 mm 1 m/s 580 mmHg 91%
    22:00 +9°C° 1 mm 1 m/s 579 mmHg 92%
    23:00 +9°C° 0,6 mm 1 m/s 579 mmHg 91%

    30 Iulie, Duminică

    Timp Temperatura Precipitaţii Vânt Presiune Umiditate
    00:00 +9°C° 0,6 mm 1 m/s 579 mmHg 90%
    01:00 +9°C° 0,6 mm 1 m/s 579 mmHg 90%
    02:00 +8°C° 0,2 mm 1 m/s 579 mmHg 89%
    03:00 +8°C° 0,2 mm 1 m/s 578 mmHg 88%
    04:00 +8°C° 0,2 mm 1 m/s 578 mmHg 87%
    05:00 +9°C° 0 mm 1 m/s 579 mmHg 85%
    06:00 +10°C° 0 mm 1 m/s 579 mmHg 82%
    07:00 +11°C° 0 mm 1 m/s 580 mmHg 79%
    08:00 +13°C° 0,1 mm 1 m/s 581 mmHg 69%
    09:00 +15°C° 0,1 mm 2 m/s 582 mmHg 60%
    10:00 +17°C° 0,1 mm 2 m/s 582 mmHg 50%
    11:00 +18°C° 0,2 mm 2 m/s 582 mmHg 49%
    12:00 +18°C° 0,2 mm 2 m/s 582 mmHg 47%
    13:00 +19°C° 0,2 mm 2 m/s 582 mmHg 46%
    14:00 +19°C° 0,4 mm 2 m/s 582 mmHg 48%
    15:00 +18°C° 0,4 mm 2 m/s 582 mmHg 50%
    16:00 +18°C° 0,4 mm 2 m/s 581 mmHg 52%
    17:00 +17°C° 0,3 mm 2 m/s 580 mmHg 60%
    18:00 +15°C° 0,3 mm 2 m/s 580 mmHg 68%
    19:00 +14°C° 0,3 mm 2 m/s 579 mmHg 76%
    20:00 +13°C° 0,1 mm 2 m/s 578 mmHg 79%
    21:00 +11°C° 0,1 mm 3 m/s 578 mmHg 83%
    22:00 +9°C° 0,1 mm 3 m/s 577 mmHg 86%
    23:00 +9°C° 0,1 mm 3 m/s 577 mmHg 87%
    Arată mai mult